Location: Unspecified
(0.0000°N, 0.0000°E)
Time: 14:13:12
(UTC+01:00)

ATLAS V CENTAUR R/B - Visible Passes

Search period start: 01 February 2015 00:00
Search period end: 11 February 2015 00:00
Orbit: 249 x 30029 km, 17.9° (Epoch: 29 January)

Date Brightness Start Highest point End Pass type
(mag) Time Alt. Az. Time Alt. Az. Time Alt. Az.
01 Feb 5.3 12:23:09 10° WNW 12:37:41 37° N 12:41:06 10° ENE visible
01 Feb 8.4 21:45:09 10° WSW 22:06:53 60° SSE 05:42:45 10° ENE visible
03 Feb 8.9 00:03:44 10° WSW 07:30:45 62° NNW 08:03:33 10° ENE visible
04 Feb 7.5 02:30:55 10° WSW 10:10:05 48° N 10:19:42 10° ENE visible
04 Feb 7.0 19:22:54 10° SW 19:30:36 38° SSE 03:00:49 10° ENE visible
05 Feb 5.2 12:15:56 10° WNW 12:30:33 41° N 12:33:53 10° ENE visible
05 Feb 8.4 21:37:23 10° WSW 21:59:16 61° SSE 05:34:29 10° ENE visible
06 Feb 8.9 23:54:26 10° WSW 07:21:01 62° NNW 07:53:54 10° ENE visible
08 Feb 7.5 02:19:52 10° WSW 09:59:02 49° N 10:08:41 10° ENE visible
08 Feb 7.0 19:11:24 10° SW 19:19:01 37° SSE 02:47:36 10° ENE visible
09 Feb 5.2 12:02:14 10° WNW 12:18:02 46° N 12:21:26 10° E visible
09 Feb 8.4 21:24:19 10° WSW 21:45:21 61° SSE 05:20:36 10° ENE visible
